SCP
0 0 0 0 0 0 0 0 0 0 0 0 0 1 2 2 2 2 2 2 2 2 2 2 2 3 3 3 3 3 3 3 3 3 3 3 2 1 1 1 1 1 1 1
0 0 0 0 0 0 0 0 0 0 0 0 1 2 2 2 2 2 3 3 4 4 4 3 2 3 3 3 3 3 4 4 4 4 4 4 3 2 1 1 1 1 1 1
0 0 0 0 0 0 0 0 0 0 0 0 0 1 2 3 3 3 4 4 5 5 5 4 3 3 3 4 4 4 4 4 4 5 5 5 4 3 2 1 1 1 1 1
0 0 0 0 0 0 0 0 0 0 0 0 0 1 2 2 3 3 4 4 5 5 5 5 4 3 4 4 4 5 5 5 5 5 5 5 5 4 3 2 1 0 0 1
0 0 0 0 0 0 0 0 0 0 0 0 0 1 1 2 2 3 3 4 4 5 5 5 4 4 4 5 5 6 5 5 6 6 5 5 4 3 2 1 1 0 0 0
0 0 0 0 0 0 0 0 0 0 0 0 0 1 1 2 2 3 3 3 3 4 4 4 4 4 4 4 5 5 6 6 7 6 5 4 3 2 1 1 0 0 0 0
0 0 0 0 0 0 0 0 0 0 0 0 0 1 1 2 2 2 2 2 2 3 3 3 3 3 3 3 4 5 5 6 6 5 4 3 2 1 1 0 0 0 0 0
0 0 0 0 0 0 0 0 0 0 0 0 1 1 2 2 2 2 2 1 1 2 2 2 2 2 2 2 2 3 4 4 4 3 2 1 1 1 0 0 0 0 0 0
0 0 0 0 0 0 0 0 0 0 0 0 1 1 1 1 1 1 1 1 1 1 1 1 1 1 1 1 1 1 2 2 2 1 1 0 0 0 0 0 0 0 0 0
0 0 0 0 0 0 0 0 0 0 0 0 1 1 1 1 1 1 1 1 0 0 0 0 0 0 0 0 0 0 1 1 0 0 0 0 0 0 0 0 0 0 0 0
0 0 0 0 0 0 0 0 0 0 0 0 0 1 1 1 1 1 1 0 0 0 0 0 0 0 0 0 0 0 0 0 0 0 0 0 0 0 0 0 0 0 0 0
0 0 0 0 0 0 0 0 0 0 0 0 1 1 1 1 1 1 0 0 0 0 0 0 0 0 0 0 0 0 0 0 0 0 0 0 0 0 0 0 0 0 0 0
0 0 0 0 0 0 0 0 0 0 0 0 1 1 1 1 1 1 0 0 0 0 0 0 0 0 0 0 0 0 0 0 0 0 0 0 0 0 0 0 0 0 0 0
0 0 0 0 0 0 0 0 0 0 0 0 1 1 1 1 0 0 0 0 0 0 0 0 0 0 0 0 0 0 0 0 0 0 0 0 0 0 0 0 0 0 0 0
0 0 0 0 0 0 0 0 0 0 0 1 1 1 1 0 0 0 0 0 0 0 0 0 0 0 0 0 0 0 0 0 0 0 0 0 0 0 0 0 0 0 0 0
0 0 0 0 0 0 0 0 0 0 1 1 1 1 1 0 0 0 0 0 0 0 0 0 0 0 0 0 0 0 0 0 0 0 0 0 0 0 0 0 0 0 0 0
0 0 0 0 0 0 0 0 0 0 0 1 1 1 1 0 0 0 0 0 0 0 0 0 0 0 0 0 0 0 0 0 0 0 0 0 0 0 0 0 0 0 0 0
0 0 0 0 0 0 0 0 0 0 0 1 1 1 0 0 0 0 0 0 0 0 0 0 0 0 0 0 0 0 0 0 0 0 0 0 0 0 0 0 0 0 0 0
0 0 0 0 0 0 0 0 0 0 0 0 0 0 0 0 0 0 0 0 0 0 0 0 0 0 0 0 0 0 0 0 0 0 0 0 0 0 0 0 0 0 0 0
0 0 0 0 0 0 0 0 0 0 0 0 0 0 0 0 0 0 0 0 0 0 0 0 0 0 0 0 0 0 0 0 0 0 0 0 0 0 0 0 0 0 0 0
0 0 0 0 0 0 0 0 0 0 0 0 0 0 0 0 0 0 0 0 0 0 0 0 0 0 0 0 0 0 0 0 0 0 0 0 0 0 0 0 0 0 0 0
0 0 0 0 0 0 0 0 0 0 0 0 0 0 0 0 0 0 0 0 0 0 0 0 0 0 0 0 0 0 0 0 0 0 0 0 0 0 0 0 0 0 0 0
0 0 0 0 0 0 0 0 0 0 0 0 0 0 0 0 0 0 0 0 0 0 0 0 0 0 0 0 0 0 0 0 0 0 0 0 0 0 0 0 0 0 0 0
0 0 0 0 0 0 0 0 0 0 0 0 0 0 0 0 0 0 0 0 0 0 0 0 0 0 0 0 0 0 0 0 0 0 0 0 0 0 0 0 0 0 0 0
0 0 0 0 0 0 0 0 0 0 0 0 0 0 0 0 0 0 0 0 0 0 0 0 0 0 0 0 0 0 0 0 0 0 0 0 0 0 0 0 0 0 0 0
0 0 0 0 0 0 0 0 0 0 0 0 0 0 0 0 0 0 0 0 0 0 0 0 0 0 0 0 0 0 0 0 0 0 0 0 0 0 0 0 0 0 0 0
Wind_Speed
4 4 4 7 8 6 2 2 4 6 4 1 2 3 7 4 1 4 5 5 7 9 5 4 5 7 8 8 10 11 11 10 9 7 6 5 4 3 2 2 3 4 4 5
4 2 7 5 4 3 3 3 4 6 3 1 1 3 5 7 4 1 1 1 0 1 2 1 3 5 7 8 8 9 10 10 9 7 5 4 5 4 3 2 3 3 4 5
4 5 3 4 3 3 3 4 4 4 6 4 2 5 6 6 8 10 10 8 7 6 4 3 3 2 3 5 6 6 7 8 9 9 7 6 5 4 3 2 2 3 4 4
4 5 3 3 4 4 4 6 5 3 2 4 2 2 3 4 8 11 11 11 11 9 8 7 6 5 3 1 4 6 7 8 9 10 10 11 7 5 4 4 4 5 5 5
4 3 4 5 7 7 7 4 2 1 2 1 2 4 3 2 5 8 10 12 11 11 11 10 10 8 6 4 3 5 7 8 8 8 9 8 7 5 5 6 7 6 6 7
6 4 5 6 5 6 4 3 4 5 4 0 1 5 1 2 3 5 9 11 12 12 12 12 11 11 10 8 7 6 8 7 8 8 8 8 9 9 8 7 7 6 6 7
5 4 4 4 1 0 4 5 4 4 3 2 1 5 3 5 7 8 9 10 11 12 12 12 13 13 12 11 9 8 9 8 8 9 8 9 9 9 9 8 8 8 6 6
2 6 3 4 6 6 5 8 7 5 4 1 3 4 4 7 8 9 9 9 10 11 11 13 13 12 12 13 11 10 10 10 10 10 10 10 10 8 7 9 8 8 7 7
2 5 4 2 2 7 6 4 6 7 3 3 2 4 5 6 8 8 8 9 10 10 12 12 13 13 13 14 13 12 12 12 12 12 13 12 12 11 11 11 10 8 8 8
4 3 5 4 6 5 4 7 6 6 5 3 2 2 2 6 6 6 6 6 7 9 11 11 12 13 13 13 13 14 14 14 13 13 12 11 12 13 11 11 11 11 10 9
2 2 5 6 6 3 3 4 5 5 5 6 4 1 3 5 8 8 6 6 7 8 9 10 10 11 12 13 13 13 13 14 14 13 13 13 13 13 12 12 11 11 10 10
2 4 3 2 2 2 4 3 4 5 2 4 5 2 3 6 8 8 8 7 7 8 9 10 10 11 12 13 13 13 13 14 13 13 13 13 13 13 12 12 11 11 11 10
3 5 3 4 5 7 6 4 3 5 5 4 5 4 4 8 8 8 8 7 7 8 9 9 10 11 11 12 12 12 12 12 12 12 13 13 12 12 12 11 10 10 10 10
5 5 4 3 2 1 4 5 3 4 4 4 4 8 7 8 8 7 7 7 8 8 9 10 10 10 11 11 11 12 12 11 11 12 13 12 11 10 10 10 10 9 9 9
6 5 5 5 5 6 6 8 7 5 3 5 6 8 7 7 7 7 7 8 9 9 10 10 10 10 10 10 10 11 11 11 11 11 12 11 9 9 9 9 8 8 8 8
5 4 4 5 6 8 10 10 7 7 5 7 9 6 5 8 7 7 8 9 10 10 10 11 11 11 10 10 10 10 10 9 9 10 10 8 8 9 8 7 7 7 6 5
3 4 4 1 2 4 7 7 5 5 5 3 4 5 8 8 8 7 7 8 9 10 10 10 10 9 9 8 8 8 8 8 9 9 8 8 7 7 6 6 6 6 4 4
5 4 4 3 3 4 0 2 4 6 6 6 8 8 9 9 8 7 7 9 10 10 10 10 9 8 7 7 7 7 8 8 8 8 7 6 6 6 5 5 5 4 3 2
4 6 5 4 3 2 0 1 0 2 3 4 8 10 10 11 9 8 8 9 10 10 9 8 8 7 7 7 7 8 8 7 7 6 6 5 5 5 5 4 3 2 2 1
6 6 6 4 4 2 2 3 1 4 2 2 6 9 8 4 4 4 7 10 10 10 8 8 7 7 7 6 6 8 7 6 5 5 4 4 4 4 4 3 2 1 1 1
5 6 5 4 2 1 2 4 1 1 2 4 6 7 5 4 5 8 10 10 9 9 8 8 7 6 5 5 6 7 6 5 3 4 4 4 3 3 3 2 1 1 2 2
2 3 2 3 2 2 4 2 2 3 2 5 7 7 8 10 12 11 10 10 9 9 8 7 7 6 4 5 6 6 4 2 3 4 4 3 2 1 2 2 1 2 2 2
2 4 4 4 4 3 3 2 2 3 5 5 6 9 13 13 11 11 9 9 8 8 6 6 7 6 5 4 5 5 2 2 3 3 2 1 1 1 1 1 1 1 1 1
1 2 4 3 1 1 2 3 4 4 5 6 8 11 12 12 12 10 9 8 7 7 6 5 6 6 4 3 3 3 2 2 3 2 1 1 1 1 1 1 1 1 1 0
3 3 4 2 2 3 2 3 4 6 9 10 10 9 10 12 11 9 8 7 7 5 4 4 5 5 3 2 2 1 2 2 2 1 0 1 1 1 1 1 1 0 1 2
3 6 6 6 7 6 5 4 5 8 8 10 11 9 9 9 10 9 7 6 6 5 4 4 4 3 2 1 1 0 1 2 2 0 1 1 1 0 0 1 2 4 2 1
Wind_Direction
113 102 186 207 196 202 224 270 291 276 278 288 270 298 317 325 225 217 204 201 203 210 202 173 172 171 175 178 182 182 178 174 168 170 169 161 156 137 129 124 137 143 147 149
64 227 224 205 189 199 229 275 290 293 305 239 328 10 5 28 26 32 148 154 273 15 32 78 152 161 172 182 184 183 178 171 173 173 158 135 124 117 106 89 81 101 134 142
182 234 201 167 186 193 228 221 245 276 333 10 71 20 25 30 44 49 49 51 48 51 48 34 47 89 137 171 177 179 173 167 165 153 132 121 107 103 110 102 86 63 79 94
222 242 197 192 215 177 257 235 222 259 358 315 54 66 360 27 46 46 44 43 40 39 39 36 34 39 48 153 157 155 155 154 152 150 154 153 152 154 145 131 108 85 73 80
240 220 191 209 221 183 219 232 212 250 191 313 18 110 317 21 53 46 44 44 40 38 42 41 38 37 35 42 98 128 132 133 140 147 153 146 136 128 117 112 106 89 73 66
240 231 204 213 224 195 199 63 51 48 82 29 296 122 12 26 52 56 49 45 40 40 40 40 39 40 38 42 62 89 105 110 121 126 128 130 131 128 126 120 113 97 82 72
305 285 232 190 196 135 125 96 37 15 37 244 10 93 75 56 66 72 62 50 44 42 42 39 37 36 36 41 52 73 89 91 93 100 102 106 114 118 118 116 108 101 89 80
305 305 268 185 183 178 169 144 156 179 193 268 32 90 87 77 75 73 66 57 51 47 45 44 40 39 39 40 46 62 76 79 81 86 86 87 92 91 93 92 96 95 91 86
217 281 300 274 205 146 140 173 163 130 134 88 77 104 112 96 82 72 65 58 51 49 49 47 44 42 44 44 44 53 65 69 70 76 79 79 82 86 89 89 87 86 86 88
192 265 322 332 47 32 125 137 100 110 132 120 105 114 129 143 126 104 82 72 63 58 56 54 51 50 50 51 51 53 59 64 64 68 74 81 82 84 86 86 84 82 80 80
143 133 345 26 32 348 53 67 89 98 128 137 144 188 334 163 147 133 112 88 75 68 66 65 62 60 59 57 58 60 63 67 68 69 74 76 77 79 80 80 80 83 81 78
78 103 46 356 312 4 83 90 123 130 130 119 126 115 20 110 117 119 111 96 84 78 73 70 69 68 65 63 62 63 64 68 70 72 74 75 75 77 78 78 79 82 82 78
84 89 70 1 350 7 40 33 75 107 106 122 132 136 97 103 104 106 110 105 96 90 83 77 72 69 70 69 68 69 69 71 74 77 78 76 74 77 79 79 77 78 80 78
98 71 121 156 220 20 33 15 37 98 115 137 148 141 141 128 122 116 112 107 103 97 93 87 80 75 74 74 73 73 72 72 76 78 80 79 76 77 78 79 80 81 84 84
75 72 67 68 68 78 62 38 37 65 117 145 143 135 146 140 131 123 113 109 105 101 97 94 91 87 82 81 79 77 75 73 75 78 78 77 76 76 78 78 79 82 83 87
59 100 82 64 62 72 56 28 32 44 48 95 106 98 106 107 106 110 112 114 109 104 103 101 97 94 90 88 87 83 80 78 81 83 82 81 81 79 79 80 82 82 81 81
63 99 91 98 314 48 35 359 23 48 31 66 103 114 122 112 107 110 113 112 110 109 106 103 99 97 96 93 93 91 89 87 87 88 89 87 87 86 83 87 83 82 78 75
110 90 95 83 58 72 293 15 76 79 52 62 93 105 108 104 91 83 98 111 107 105 102 99 98 97 93 92 91 92 91 91 91 91 93 94 94 92 88 85 83 78 73 68
99 117 99 94 88 90 276 2 30 100 69 78 111 112 111 112 92 68 72 94 100 101 100 97 98 99 98 97 99 98 94 94 96 97 101 103 104 101 95 89 81 67 64 40
49 71 94 98 111 185 251 316 281 118 108 136 133 133 135 124 109 102 98 98 97 96 97 97 96 95 93 94 100 100 99 97 98 103 106 108 109 108 103 95 77 55 62 24
22 34 63 89 103 271 299 315 39 135 214 153 139 135 122 94 114 120 112 101 100 98 98 98 96 93 95 103 104 101 99 99 103 106 102 100 103 109 110 93 72 65 55 43
120 100 101 108 99 262 328 20 128 175 122 114 119 119 112 112 113 112 110 107 104 101 98 98 97 91 88 100 105 102 101 108 104 103 98 95 92 92 113 111 88 69 72 60
119 170 161 161 191 251 335 54 80 121 113 112 120 125 126 124 121 117 112 110 106 105 99 97 102 94 81 89 106 108 113 109 105 99 90 77 60 45 82 126 129 85 75 73
119 125 105 98 77 41 49 64 64 80 102 113 124 129 130 126 125 119 115 111 107 103 101 103 101 98 90 90 100 119 128 120 117 115 96 9 0 355 22 70 140 149 156 130
167 122 103 110 148 106 60 90 101 95 100 106 109 115 124 125 123 120 118 115 112 107 102 104 107 110 112 113 117 139 137 124 119 112 339 331 329 318 18 49 38 176 212 207
188 163 160 200 195 167 174 149 130 120 120 124 120 113 117 123 122 120 117 117 118 117 114 112 112 116 118 113 124 165 160 149 147 205 296 304 307 303 126 95 50 42 55 61